Location: C.E.K. Mees Observatory
(42.7003°N, 77.4088°W)
Time: 15:37:03
(UTC-05:00)

Envisat - Pass Details

Date: 13 October 2017
Orbit: 764 x 766 km, 98.2° (Epoch: 13 December)

Event Time Altitude Azimuth Distance (km) Brightness Sun altitude
Exits shadow 20:57:01 70° 350° (N) 814 3.1 -27.6°
Drops below altitude 10° 21:01:32 10° 347° (NNW) 2,313 5.8 -28.4°
Sets 21:03:51 0° 348° (NNW) 3,244 6.6 -28.8°
